Date_and_time,latitude,longitude,wind_speed,RelWindDirFrom,WindDirFrom,air_pressure,air_temperature,relative_humidity,Temp,platform_speed_wrt_ground,air_pressure_at_mean_sea_level,platform_orientation
2019-12-20 23:40,50.6304516666667,-96.9807633333333,9.0,10.9,166,989.74,-8.8,95,0.65,0.0,1018.60,360.0
2019-12-20 23:50,50.6304533333333,-96.9807633333333,9.4,11.8,157,989.39,-8.8,95,0.66,0.0,1018.23,360.0
2019-12-21 00:00,50.630455,-96.9807633333333,9.0,11.0,160,989.32,-8.8,96,0.67,0.0,1018.16,90.0
2019-12-21 00:10,50.6304566666667,-96.980765,9.0,10.9,165,989.31,-8.8,96,0.67,0.0,1018.15,90.0
2019-12-21 00:20,50.6304566666667,-96.980765,10.4,12.5,168,989.28,-8.8,96,0.67,0.0,1018.11,90.0
2019-12-21 00:30,50.6304566666667,-96.9807683333333,11.4,13.8,173,989.31,-8.8,95,0.67,0.0,1018.15,90.0
2019-12-21 00:40,50.6304566666667,-96.9807683333333,11.1,14.4,177,989.53,-8.6,95,0.67,0.0,1018.36,90.0
2019-12-21 00:50,50.6304566666667,-96.9807683333333,13.4,15.7,175,989.06,-8.5,94,0.67,0.0,1017.88,90.0
2019-12-21 01:00,50.6304566666667,-96.9807683333333,13.5,17.1,175,988.80,-8.6,94,0.67,0.0,1017.62,90.0
2019-12-21 01:10,50.6304566666667,-96.9807666666667,14.4,17.6,172,988.45,-8.7,93,0.67,0.0,1017.27,90.0
2019-12-21 01:20,50.6304566666667,-96.9807683333333,13.9,18.0,171,988.35,-8.8,93,0.67,0.0,1017.17,90.0
2019-12-21 01:30,50.6304583333333,-96.9807666666667,15.1,18.5,174,988.37,-8.9,92,0.67,0.0,1017.19,90.0
2019-12-21 01:40,50.6304583333333,-96.9807683333333,16.2,19.3,169,988.06,-9.0,91,0.67,0.0,1016.89,90.0
2019-12-21 01:50,50.6304583333333,-96.9807666666667,18.0,21.1,166,987.90,-9.0,90,0.67,0.0,1016.71,90.0
2019-12-21 02:00,50.6304583333333,-96.9807666666667,19.0,22.6,165,987.78,-9.1,89,0.67,0.0,1016.60,360.0
2019-12-21 02:10,50.6304583333333,-96.9807666666667,18.3,22.9,169,987.84,-9.3,89,0.67,0.0,1016.67,360.0
2019-12-21 02:20,50.6304666666667,-96.98077,18.8,23.4,167,987.75,-9.4,90,0.67,0.0,1016.58,360.0
2019-12-21 02:30,50.6304616666667,-96.9807566666667,19.1,23.8,169,987.64,-9.5,91,0.68,0.0,1016.47,360.0
2019-12-21 02:40,50.6304583333333,-96.9807616666667,18.8,22.6,165,987.17,-9.6,93,0.67,0.0,1015.97,360.0
2019-12-21 02:50,50.6304566666667,-96.9807633333333,19.7,24.7,167,986.96,-9.5,94,0.67,0.0,1015.76,360.0
2019-12-21 03:00,50.63046,-96.9807833333333,18.5,23.3,172,987.07,-9.3,95,0.67,0.0,1015.88,293.6
2019-12-21 03:10,50.6304566666667,-96.9807716666667,17.8,22.7,166,986.69,-9.3,95,0.68,0.0,1015.49,293.6
2019-12-21 03:20,50.630455,-96.9807683333333,17.2,21.2,167,986.42,-9.1,96,0.68,0.0,1015.20,293.6
2019-12-21 03:30,50.63045,-96.9807533333333,17.8,20.8,169,986.29,-9.0,96,0.68,0.0,1015.07,293.6
2019-12-21 03:40,50.6304383333333,-96.9807666666667,16.7,21.8,169,986.31,-8.8,96,0.68,0.0,1015.09,293.6
2019-12-21 03:50,50.6304433333333,-96.9807683333333,17.1,20.4,168,986.34,-8.7,96,0.68,0.0,1015.11,293.6
2019-12-21 04:00,50.6304333333333,-96.9807783333333,16.7,20.8,168,986.13,-8.6,95,0.68,0.0,1014.90,217.7
2019-12-21 04:10,50.6304383333333,-96.9807716666667,17.6,20.4,170,985.88,-8.5,95,0.68,0.0,1014.64,217.7
2019-12-21 04:20,50.6304483333333,-96.98077,15.9,19.2,172,985.88,-8.4,95,0.69,0.0,1014.64,217.7
2019-12-21 04:30,50.630455,-96.9807733333333,15.3,18.9,172,985.78,-8.4,95,0.68,0.0,1014.54,217.7
2019-12-21 04:40,50.6304566666667,-96.9807683333333,18.2,21.9,171,985.47,-8.3,94,0.68,0.0,1014.21,217.7
2019-12-21 04:50,50.6304533333333,-96.98077,18.0,22.4,173,985.43,-8.3,94,0.68,0.0,1014.16,217.7
2019-12-21 05:00,50.630455,-96.9807683333333,18.6,24.2,173,985.30,-8.2,94,0.68,0.0,1014.02,360.0
2019-12-21 05:10,50.630455,-96.98077,17.3,21.7,174,985.22,-8.2,94,0.69,0.0,1013.93,360.0
2019-12-21 05:20,50.630455,-96.9807683333333,16.6,21.7,175,985.34,-8.2,95,0.69,0.0,1014.04,360.0
2019-12-21 05:30,50.630455,-96.98077,16.8,21.4,172,985.31,-8.2,95,0.68,0.0,1014.01,360.0
2019-12-21 05:40,50.630455,-96.98077,15.4,19.1,173,985.31,-8.2,95,0.68,0.0,1014.00,360.0
2019-12-21 05:50,50.6304433333333,-96.9807616666667,14.9,19.5,174,985.33,-8.2,94,0.68,0.0,1014.01,360.0
2019-12-21 06:00,50.6304416666667,-96.9807533333333,15.6,19.0,171,985.12,-8.1,94,0.68,0.0,1013.79,129.1
2019-12-21 06:10,50.6304433333333,-96.9807583333333,15.4,19.1,173,985.11,-8.1,93,0.69,0.0,1013.77,129.1
2019-12-21 06:20,50.6304433333333,-96.9807616666667,16.0,20.2,171,984.91,-8.1,93,0.69,0.0,1013.57,129.1
2019-12-21 06:30,50.6304466666667,-96.9807616666667,17.9,22.8,169,984.54,-8.2,93,0.68,0.0,1013.18,129.1
2019-12-21 06:40,50.6304483333333,-96.9807633333333,17.8,21.3,170,984.33,-8.2,92,0.68,0.0,1012.96,129.1
2019-12-21 06:50,50.6304483333333,-96.9807616666667,16.8,21.6,172,984.21,-8.3,92,0.68,0.0,1012.85,129.1
2019-12-21 07:00,50.6304483333333,-96.9807633333333,16.7,20.6,173,984.25,-8.4,92,0.68,0.0,1012.89,41.2
2019-12-21 07:10,50.63045,-96.9807633333333,16.0,20.8,178,984.37,-8.4,91,0.68,0.0,1013.02,41.2
2019-12-21 07:20,50.63045,-96.980765,15.1,19.5,176,984.09,-8.4,91,0.68,0.0,1012.73,41.2
2019-12-21 07:30,50.63045,-96.980765,16.3,21.0,178,983.93,-8.4,90,0.68,0.0,1012.56,41.2
2019-12-21 07:40,50.63045,-96.980765,16.6,21.8,175,983.53,-8.4,90,0.68,0.0,1012.15,41.2
2019-12-21 07:50,50.6304533333333,-96.980765,15.6,21.8,174,983.43,-8.5,89,0.67,0.0,1012.05,41.2
2019-12-21 08:00,50.6304516666667,-96.9807666666667,16.8,21.2,170,983.10,-8.5,89,0.67,0.0,1011.71,90.0
2019-12-21 08:10,50.6304516666667,-96.980765,14.2,18.4,175,983.55,-8.5,90,0.68,0.0,1012.17,90.0
2019-12-21 08:20,50.6304466666667,-96.980765,13.2,16.4,175,983.67,-8.6,89,0.68,0.0,1012.30,90.0
2019-12-21 08:30,50.63046,-96.9807933333333,13.8,18.0,173,983.61,-8.6,89,0.68,0.0,1012.25,90.0
2019-12-21 08:40,50.6304583333333,-96.980785,10.6,13.1,179,984.13,-8.7,89,0.68,0.0,1012.80,90.0
2019-12-21 08:50,50.63046,-96.9807816666667,10.8,13.8,179,984.34,-8.7,89,0.68,0.0,1013.01,90.0
2019-12-21 09:00,50.6304583333333,-96.9807816666667,12.8,16.1,178,984.27,-8.7,88,0.67,0.0,1012.94,309.1
2019-12-21 09:10,50.6304683333333,-96.980785,10.8,13.7,179,984.20,-8.8,89,0.67,0.0,1012.88,309.1
2019-12-21 09:20,50.6304466666667,-96.98077,12.1,16.4,180,984.19,-8.8,89,0.67,0.0,1012.87,309.1
2019-12-21 09:30,50.63045,-96.9807733333333,12.1,14.9,180,984.12,-8.9,89,0.67,0.0,1012.80,309.1
2019-12-21 09:40,50.6304466666667,-96.98077,11.4,14.0,178,983.95,-9.0,89,0.67,0.0,1012.63,309.1
2019-12-21 09:50,50.6304516666667,-96.9807566666667,10.9,13.4,172,983.61,-9.1,90,0.67,0.0,1012.29,309.1
2019-12-21 10:00,50.6304466666667,-96.9807583333333,11.1,12.7,170,983.32,-9.2,90,0.67,0.0,1012.00,90.0
2019-12-21 10:10,50.6304566666667,-96.9807783333333,10.2,12.6,172,983.31,-9.2,90,0.68,0.0,1011.99,90.0
2019-12-21 10:20,50.630455,-96.980765,9.7,12.1,173,983.26,-9.2,91,0.68,0.0,1011.94,90.0
2019-12-21 10:30,50.6304516666667,-96.9807683333333,9.2,11.3,178,983.37,-9.2,91,0.68,0.0,1012.06,90.0
2019-12-21 10:40,50.6304516666667,-96.9807733333333,11.8,13.9,172,982.60,-9.2,90,0.68,0.0,1011.27,90.0
2019-12-21 10:50,50.6304433333333,-96.9807816666667,10.5,15.1,182,982.94,-9.1,90,0.67,0.0,1011.62,90.0
2019-12-21 11:00,50.6304483333333,-96.9807733333333,8.8,12.0,184,982.95,-9.1,90,0.68,0.0,1011.62,192.6
2019-12-21 11:10,50.630445,-96.9807716666667,11.0,14.7,186,982.82,-9.1,89,0.68,0.0,1011.49,192.6
2019-12-21 11:20,50.6304466666667,-96.980765,13.1,16.9,185,982.70,-9.1,89,0.70,0.0,1011.38,192.6
2019-12-21 11:30,50.6304483333333,-96.9807633333333,13.7,16.8,184,982.21,-9.1,89,0.70,0.0,1010.88,192.6
2019-12-21 11:40,50.6304533333333,-96.98077,13.0,15.9,186,982.37,-9.2,89,0.68,0.0,1011.05,192.6
2019-12-21 11:50,50.6304516666667,-96.980775,12.3,16.0,188,982.40,-9.2,89,0.68,0.0,1011.09,192.6
2019-12-21 12:00,50.63045,-96.9807716666667,12.2,16.4,186,982.26,-9.3,89,0.68,0.0,1010.95,119.2
2019-12-21 12:10,50.63045,-96.9807733333333,10.1,13.1,188,982.32,-9.3,89,0.68,0.0,1011.02,119.2
2019-12-21 12:20,50.6304516666667,-96.9807616666667,10.9,14.1,189,982.35,-9.3,88,0.68,0.0,1011.05,119.2
2019-12-21 12:30,50.6304416666667,-96.9807716666667,10.2,13.8,188,982.35,-9.3,89,0.68,0.0,1011.04,119.2
2019-12-21 12:40,50.63045,-96.9807583333333,10.7,13.1,188,982.35,-9.4,89,0.67,0.0,1011.05,119.2
2019-12-21 12:50,50.6304516666667,-96.980765,7.3,10.4,188,982.54,-9.4,89,0.68,0.0,1011.23,119.2
2019-12-21 13:00,50.6304583333333,-96.98078,6.1,8.3,193,982.66,-9.4,89,0.67,0.0,1011.36,302.3
2019-12-21 13:10,50.6304533333333,-96.9807683333333,3.9,6.8,202,982.92,-9.4,89,0.67,0.0,1011.63,302.3
2019-12-21 13:20,50.630455,-96.98077,5.3,8.0,193,982.92,-9.4,89,0.67,0.0,1011.63,302.3
2019-12-21 13:30,50.630455,-96.9807683333333,7.3,10.0,186,982.79,-9.4,89,0.67,0.0,1011.50,302.3
2019-12-21 13:40,50.6304566666667,-96.98077,7.1,9.0,190,982.83,-9.5,89,0.67,0.0,1011.54,302.3
2019-12-21 13:50,50.630455,-96.9807683333333,7.4,9.7,189,982.68,-9.7,90,0.67,0.0,1011.40,302.3
2019-12-21 14:00,50.630455,-96.9807683333333,7.7,10.4,191,982.56,-9.8,90,0.67,0.0,1011.29,48.3
2019-12-21 14:10,50.630455,-96.9807683333333,7.9,10.6,194,982.57,-9.8,90,0.67,0.0,1011.30,48.3
2019-12-21 14:20,50.6304583333333,-96.9807716666667,7.0,9.1,195,982.63,-9.8,90,0.67,0.0,1011.37,48.3
2019-12-21 14:30,50.6304516666667,-96.9807666666667,5.3,7.2,209,983.01,-9.8,90,0.67,0.0,1011.76,48.3
2019-12-21 14:40,50.63045,-96.980765,4.7,7.1,217,983.22,-9.7,90,0.66,0.0,1011.97,48.3
2019-12-21 14:50,50.6304516666667,-96.980765,3.3,4.3,213,983.29,-9.7,90,0.66,0.0,1012.04,48.3
2019-12-21 15:00,50.6304533333333,-96.980765,3.6,5.1,210,983.46,-9.8,89,0.66,0.0,1012.22,90.0
2019-12-21 15:10,50.630455,-96.980765,4.0,5.4,204,983.55,-9.7,88,0.66,0.0,1012.31,90.0
2019-12-21 15:20,50.6304566666667,-96.9807666666667,3.6,4.2,204,983.66,-9.5,87,0.66,0.0,1012.42,90.0
2019-12-21 15:30,50.6304566666667,-96.9807666666667,3.9,4.7,209,983.92,-9.2,86,0.66,0.0,1012.67,90.0
2019-12-21 15:40,50.630445,-96.98079,3.1,4.6,215,984.07,-8.9,85,0.66,0.0,1012.82,90.0
2019-12-21 15:50,50.6304516666667,-96.9807816666667,3.4,4.8,232,984.22,-8.6,83,0.66,0.0,1012.96,90.0
2019-12-21 16:00,50.6304533333333,-96.9807816666667,3.1,5.6,235,984.13,-8.2,82,0.66,0.0,1012.84,360.0
2019-12-21 16:10,50.6304516666667,-96.9807833333333,4.0,5.7,230,984.28,-8.0,82,0.66,0.0,1012.99,360.0
2019-12-21 16:20,50.6304466666667,-96.98079,2.1,4.0,234,984.35,-7.5,80,0.66,0.0,1013.04,360.0
2019-12-21 16:30,50.6304516666667,-96.9807666666667,3.8,7.5,232,984.62,-7.2,80,0.66,0.0,1013.29,360.0
2019-12-21 16:40,50.63045,-96.9807633333333,2.7,5.9,257,984.47,-6.7,79,0.66,0.0,1013.11,360.0
2019-12-21 16:50,50.6304516666667,-96.980765,3.7,6.4,273,984.71,-6.2,77,0.66,0.0,1013.33,360.0
2019-12-21 17:00,50.63045,-96.9807633333333,4.5,7.5,287,984.78,-5.7,78,0.66,0.0,1013.37,90.0
2019-12-21 17:10,50.6304483333333,-96.9807633333333,3.7,5.8,281,984.56,-5.2,77,0.66,0.0,1013.11,90.0
2019-12-21 17:20,50.63045,-96.980765,3.7,6.0,272,984.85,-4.7,75,0.66,0.0,1013.36,90.0
2019-12-21 17:30,50.63045,-96.980765,3.6,6.1,293,984.43,-4.1,74,0.65,0.0,1012.89,90.0
2019-12-21 17:40,50.63045,-96.980765,4.8,7.0,292,984.59,-3.8,75,0.65,0.0,1013.02,90.0
2019-12-21 17:50,50.63046,-96.980765,6.0,8.0,307,984.48,-4.1,77,0.66,0.0,1012.89,90.0
2019-12-21 18:00,50.6304566666667,-96.980765,5.1,7.7,293,984.52,-4.1,76,0.66,0.0,1012.94,0.0
2019-12-21 18:10,50.630445,-96.9807616666667,5.4,7.5,300,984.54,-4.2,76,0.67,0.0,1012.92,0.0
2019-12-21 18:20,50.6304483333333,-96.9807633333333,5.9,7.8,292,984.65,-4.4,76,0.66,0.0,1013.03,0.0
2019-12-21 18:30,50.6304483333333,-96.98076,5.4,7.9,307,984.56,-4.6,77,0.67,0.0,1012.93,0.0
2019-12-21 18:40,50.63045,-96.9807583333333,6.1,8.4,314,984.53,-4.6,77,0.67,0.0,1012.87,0.0
2019-12-21 18:50,50.6304516666667,-96.98076,7.1,9.1,310,984.65,-4.7,76,0.67,0.0,1012.98,0.0
2019-12-21 19:00,50.6304683333333,-96.98077,5.5,8.5,293,984.98,-4.6,75,0.67,0.0,1013.27,31.1
2019-12-21 19:10,50.63046,-96.9807683333333,6.5,8.9,293,985.14,-4.2,73,0.68,0.0,1013.40,31.1
2019-12-21 19:20,50.6304583333333,-96.9807683333333,6.6,9.4,300,985.04,-4.0,72,0.68,0.0,1013.25,31.1
2019-12-21 19:30,50.630455,-96.9807683333333,5.5,7.9,308,984.93,-3.7,70,0.68,0.0,1013.10,31.1
2019-12-21 19:40,50.630455,-96.9807683333333,6.3,8.4,319,984.91,-3.9,71,0.68,0.0,1013.11,31.1
2019-12-21 19:50,50.6304533333333,-96.980775,5.4,9.3,316,984.97,-4.1,72,0.69,0.0,1013.18,31.1
2019-12-21 20:00,50.630455,-96.980765,5.8,8.0,313,985.22,-4.2,72,0.69,0.0,1013.45,90.0
2019-12-21 20:10,50.6304533333333,-96.980765,6.4,9.0,331,985.43,-4.3,72,0.70,0.0,1013.68,90.0
2019-12-21 20:20,50.6304516666667,-96.9807666666667,5.3,7.3,21,985.41,-5.2,83,0.70,0.0,1013.72,90.0
2019-12-21 20:30,50.6304516666667,-96.9807683333333,6.0,9.4,358,985.49,-5.4,80,0.71,0.0,1013.82,90.0
2019-12-21 20:40,50.6304516666667,-96.98077,7.0,9.4,349,985.62,-5.1,74,0.71,0.0,1013.94,90.0
2019-12-21 20:50,50.6304516666667,-96.98077,6.4,8.5,340,985.81,-5.4,73,0.71,0.0,1014.14,90.0
2019-12-21 21:00,50.6304516666667,-96.9807716666667,6.2,8.1,331,985.93,-5.6,73,0.72,0.0,1014.25,270.0
2019-12-21 21:10,50.63046,-96.9807783333333,5.0,7.1,318,986.24,-5.8,74,0.72,0.0,1014.58,270.0
2019-12-21 21:20,50.6304366666667,-96.98078,5.6,7.3,330,986.47,-6.0,74,0.73,0.0,1014.80,270.0
2019-12-21 21:30,50.63045,-96.9807766666667,6.1,8.0,337,986.51,-6.1,74,0.74,0.0,1014.87,270.0
2019-12-21 21:40,50.6304566666667,-96.980775,4.5,5.4,350,986.56,-6.3,76,0.88,0.0,1014.94,270.0
2019-12-21 21:50,50.6304616666667,-96.9807666666667,5.3,7.1,345,986.77,-6.4,76,0.75,0.0,1015.16,270.0
2019-12-21 22:00,50.63046,-96.9807766666667,4.3,6.2,334,986.84,-6.6,76,0.75,0.0,1015.24,194.5
2019-12-21 22:10,50.6304616666667,-96.980775,4.3,5.3,335,986.87,-6.7,76,0.75,0.0,1015.33,194.5
2019-12-21 22:20,50.63046,-96.9807733333333,5.3,6.4,346,986.94,-6.8,77,0.75,0.0,1015.43,194.5
2019-12-21 22:30,50.63046,-96.98077,8.9,12.7,4,987.08,-7.2,80,0.75,0.0,1015.58,194.5
2019-12-21 22:40,50.6304583333333,-96.9807683333333,10.6,13.5,5,987.22,-7.8,83,0.75,0.0,1015.76,194.5
2019-12-21 22:50,50.63044,-96.9807166666667,9.7,11.8,5,987.16,-8.1,85,0.76,0.0,1015.72,194.5
2019-12-21 23:00,50.63044,-96.98076,10.1,12.1,6,987.18,-8.3,86,0.76,0.0,1015.77,138.7
2019-12-21 23:10,50.6304516666667,-96.9807666666667,10.0,12.6,4,987.11,-8.4,87,0.76,0.0,1015.72,138.7
2019-12-21 23:20,50.6304516666667,-96.9807583333333,9.2,11.2,0,987.16,-8.5,87,0.76,0.0,1015.78,138.7
2019-12-21 23:30,50.6304483333333,-96.9807633333333,8.3,10.2,10,987.30,-8.6,88,0.76,0.0,1015.94,138.7
2019-12-21 23:40,50.63045,-96.9807633333333,8.8,10.4,13,987.50,-8.7,88,0.76,0.0,1016.16,138.7
2019-12-21 23:50,50.6304533333333,-96.9807633333333,6.9,9.4,1,987.73,-8.8,89,0.77,0.0,1016.40,138.7
